CAPE
0 0 0 0 0 1 3 0 0 0 2 4 28 15 71 48 38 35 60 164 110 60 23 0 0 0 20 16 24 15 0 38 44 79 106 270 357 333 292 578 695 758 804
0 0 0 0 2 6 0 0 0 0 3 22 10 53 80 41 28 48 99 124 73 60 74 14 1 26 18 21 0 0 3 13 53 111 92 193 236 270 461 351 606 642 574
0 0 0 4 6 15 0 1 0 0 13 19 8 12 6 4 18 4 32 32 15 20 66 57 15 38 27 3 0 0 1 29 31 133 139 213 94 212 261 385 652 741 614
0 0 0 3 8 1 0 0 0 0 19 11 3 7 30 0 0 0 0 0 0 17 14 32 36 39 14 14 0 0 15 56 99 130 164 161 175 289 306 398 544 727 594
0 0 0 0 0 0 0 0 0 2 4 16 22 66 2 0 0 0 0 0 0 12 6 7 0 0 0 9 0 0 7 60 78 141 158 166 155 179 452 498 490 354 463
0 0 0 0 0 0 0 0 0 3 0 0 18 26 0 0 0 0 0 0 0 33 0 2 8 10 6 0 0 0 0 15 32 71 128 188 196 139 291 398 311 381 457
0 0 0 0 0 0 0 0 0 0 0 4 32 0 3 0 0 0 0 0 1 24 0 8 9 29 22 51 39 26 0 2 33 40 96 97 74 159 287 463 322 235 210
0 0 0 0 0 0 0 0 0 0 0 13 6 0 0 0 0 0 0 0 0 0 10 5 4 13 84 63 66 70 36 10 43 107 92 74 66 227 348 214 257 103 68
0 0 0 0 0 0 0 0 0 0 0 0 0 0 7 0 0 0 0 0 0 0 0 0 7 34 52 66 67 74 45 14 27 126 153 129 136 150 224 133 303 134 133
0 0 0 0 0 0 0 0 0 0 0 0 0 1 13 20 0 0 0 0 0 0 0 0 6 34 43 81 75 113 131 140 92 124 163 184 135 97 134 148 120 98 119
0 0 0 0 0 0 0 0 0 0 0 0 0 2 22 31 0 0 0 0 0 0 0 0 14 28 64 103 85 152 312 244 255 119 148 101 110 106 40 111 79 65 59
0 0 0 0 0 0 0 0 0 0 0 0 0 2 17 28 0 0 0 0 0 0 0 3 46 36 53 91 63 55 58 72 180 84 105 87 75 34 20 56 62 47 47
0 0 0 0 0 0 0 0 0 0 0 0 0 0 2 0 0 0 0 0 0 0 0 8 52 36 49 67 51 39 21 117 25 59 42 44 40 15 25 38 50 38 52
0 0 0 0 0 0 0 0 0 0 0 0 0 0 0 0 0 0 0 0 0 0 15 18 29 17 50 12 0 14 1 47 195 222 85 23 29 35 40 38 34 43 28
0 0 0 0 0 0 0 0 0 0 0 0 0 0 0 0 0 0 0 0 0 0 0 27 2 0 0 0 0 0 1 5 19 53 36 16 11 30 35 34 24 12 19
0 0 0 0 0 0 0 0 0 0 0 0 0 0 0 0 0 0 0 0 0 0 14 48 10 0 0 0 0 0 0 14 19 20 0 10 8 12 17 27 35 38 20
0 0 0 0 0 0 0 0 0 0 0 0 0 0 0 0 0 0 0 0 0 0 1 0 9 19 3 0 0 3 1 2 89 64 2 6 0 2 13 40 32 30 37
0 0 0 0 0 0 0 0 0 0 0 0 0 0 0 0 0 0 0 0 0 0 0 0 7 27 8 8 8 12 4 1 16 56 2 7 10 21 42 47 40 20 24
0 0 0 0 0 0 0 0 0 0 0 0 0 0 0 0 0 0 0 0 0 0 0 0 1 11 30 15 4 10 0 2 0 19 24 17 26 28 19 28 34 26 23
0 0 0 0 0 0 0 0 0 0 0 0 0 0 0 0 0 0 0 0 0 0 0 0 0 0 9 10 7 7 14 21 29 12 12 9 2 4 35 33 12 5 5
0 0 0 0 0 0 0 0 0 0 0 0 0 0 0 0 0 0 0 0 0 0 0 0 0 0 1 7 1 0 3 16 31 17 2 3 4 7 14 17 2 8 4
0 0 0 0 0 0 0 0 0 0 0 0 0 0 0 0 0 0 0 0 0 0 0 0 0 0 0 0 0 0 0 0 4 9 2 0 1 1 10 20 0 0 0
11 0 0 0 0 0 0 0 0 0 0 0 0 0 0 0 0 0 1 0 0 0 0 0 0 0 0 0 0 0 0 6 0 0 0 0 0 0 0 0 0 0 0
4 2 0 0 0 0 0 0 0 0 0 0 0 0 0 0 0 20 38 0 0 0 0 0 0 0 0 0 0 0 0 0 0 0 0 0 0 0 0 0 0 0 0
2 8 7 0 0 0 0 0 0 0 0 0 0 0 0 0 0 0 0 15 0 0 0 0 0 0 0 0 0 0 0 0 0 0 0 0 0 0 0 0 0 0 0
1 11 42 10 0 0 0 0 0 0 0 0 0 0 0 0 0 0 0 0 0 0 0 0 0 0 0 0 0 0 0 0 0 0 0 0 0 0 0 0 0 0 0
CIN
-0 -0 -0 -0 -0 -11 -8 -0 -0 -0 -358 -432 -318 -256 -166 -135 -115 -104 -52 -22 -20 -8 -9 -6 -0 -0 -12 -14 -6 -7 -0 -16 -28 -24 -26 -26 -22 -24 -42 -37 -28 -16 -13
-0 -0 -0 -0 -7 -6 -0 -0 -0 -0 -426 -340 -301 -236 -155 -125 -123 -119 -51 -17 -19 -9 -1 -8 -44 -14 -12 -10 -0 -0 -35 -18 -52 -8 -8 -15 -30 -28 -27 -31 -14 -5 -14
-0 -0 -0 -4 -4 -2 -0 -667 -0 -0 -370 -300 -313 -232 -173 -66 -75 -131 -78 -37 -42 -28 -5 -2 -13 -9 -16 -7 -0 -0 -8 -53 -42 -18 -22 -4 -15 -11 -10 -9 -0 -0 -4
-0 -0 -0 -12 -15 -3 -0 -0 -0 -0 -307 -297 -33 -57 -92 -0 -0 -0 -0 -0 -0 -38 -21 -7 -12 -17 -26 -27 -0 -0 -41 -44 -53 -23 -16 -21 -23 -12 -2 -1 -0 -0 -2
-0 -0 -0 -0 -0 -0 -0 -0 -0 -175 -303 -276 -157 -75 -10 -0 -0 -0 -0 -0 -0 -40 -24 -19 -0 -2 -0 -33 -0 -0 -72 -22 -28 -51 -50 -36 -55 -58 -25 -3 -1 -13 -2
-0 -0 -0 -0 -0 -0 -0 -0 -0 -229 -0 -0 -143 -66 -0 -0 -0 -0 -0 -0 -0 -15 -0 -12 -31 -12 -12 -0 -0 -0 -0 -37 -24 -33 -81 -53 -44 -37 -34 -10 -10 -3 -0
-0 -0 -0 -0 -0 -0 -0 -0 -0 -0 -0 -226 -99 -0 -6 -0 -0 -0 -0 -0 -21 -24 -0 -32 -20 -15 -12 -27 -31 -58 -0 -18 -40 -34 -68 -61 -64 -66 -59 -12 -22 -0 -0
-0 -0 -0 -0 -0 -0 -0 -0 -0 -0 -0 -182 -72 -0 -0 -0 -0 -0 -0 -0 -0 -8 -21 -31 -23 -40 -37 -34 -38 -56 -47 -42 -40 -17 -41 -69 -35 -52 -54 -38 -14 -50 -3
-0 -0 -0 -0 -0 -0 -0 -0 -0 -0 -0 -0 -0 -0 -11 -1 -0 -0 -0 -0 -0 -0 -0 -0 -56 -50 -40 -45 -38 -42 -38 -67 -47 -33 -43 -29 -24 -44 -65 -56 -44 -35 -0
-0 -0 -0 -0 -0 -0 -0 -0 -0 -0 -0 -0 -0 -3 -5 -5 -0 -0 -0 -0 -0 -0 -0 -0 -92 -63 -50 -48 -33 -22 -19 -13 -22 -27 -35 -41 -47 -34 -11 -47 -38 -20 -15
-0 -0 -0 -0 -0 -0 -0 -0 -0 -0 -0 -0 -0 -15 -7 -5 -0 -0 -0 -0 -0 -0 -0 -0 -73 -55 -37 -24 -30 -7 -0 -8 -3 -22 -35 -57 -57 -34 -46 -14 -24 -21 -53
-0 -0 -0 -0 -0 -0 -0 -0 -0 -0 -0 -0 -0 -13 -14 -21 -0 -0 -0 -0 -0 -0 -0 -12 -44 -52 -35 -20 -20 -40 -32 -11 -17 -36 -30 -32 -35 -30 -54 -11 -16 -10 -9
-0 -0 -0 -0 -0 -0 -0 -0 -0 -0 -0 -0 -0 -0 -10 -0 -0 -0 -0 -0 -0 -0 -0 -7 -26 -36 -32 -24 -28 -44 -59 -13 -38 -29 -14 -26 -25 -20 -12 -6 -1 -0 -0
-0 -0 -0 -0 -0 -0 -0 -0 -0 -0 -0 -0 -0 -0 -0 -0 -0 -0 -0 -0 -0 -0 -35 -30 -33 -45 -35 -61 -0 -66 -33 -20 -3 -0 -4 -24 -16 -13 -13 -11 -6 -4 -0
-0 -0 -0 -0 -0 -0 -0 -0 -0 -0 -0 -0 -0 -0 -0 -0 -0 -0 -0 -0 -0 -0 -0 -31 -10 -0 -0 -0 -0 -0 -0 -4 -22 -12 -8 -10 -2 -3 -0 -16 -12 -12 -9
-0 -0 -0 -0 -0 -0 -0 -0 -0 -0 -0 -0 -0 -0 -0 -0 -0 -0 -0 -0 -0 -0 -48 -35 -19 -0 -0 -0 -0 -0 -0 -36 -32 -9 -0 -1 -23 -13 -30 -19 -20 -14 -19
-0 -0 -0 -0 -0 -0 -0 -0 -0 -0 -0 -0 -0 -0 -0 -0 -0 -0 -0 -0 -0 -0 -53 -0 -37 -50 -34 -0 -0 -51 -0 -0 -5 -1 -11 -3 -0 -11 -37 -30 -14 -49 -40
-0 -0 -0 -0 -0 -0 -0 -0 -0 -0 -0 -0 -0 -0 -0 -0 -0 -0 -0 -0 -0 -0 -0 -0 -22 -32 -56 -58 -90 -45 -29 -0 -23 -1 -2 -13 -28 -8 -38 -35 -27 -52 -65
-0 -0 -0 -0 -0 -0 -0 -0 -0 -0 -0 -0 -0 -0 -0 -0 -0 -0 -0 -0 -0 -0 -0 -0 -44 -56 -48 -41 -52 -32 -0 -0 -0 -3 -6 -2 -4 -19 -0 -3 -8 -32 -24
-0 -0 -0 -0 -0 -0 -0 -0 -0 -0 -0 -0 -0 -0 -0 -0 -0 -0 -0 -0 -0 -0 -0 -0 -0 -0 -52 -49 -4 -2 -62 -42 -24 -14 -17 -42 -64 -83 -7 -48 -53 -7 -43
-0 -0 -0 -0 -0 -0 -0 -0 -0 -0 -0 -0 -0 -0 -0 -0 -0 -0 -0 -0 -0 -0 -0 -0 -0 -0 -30 -59 -55 -0 -0 -0 -52 -67 -1 -10 -1 -28 -74 -59 -12 -11 -25
-0 -0 -0 -0 -0 -0 -0 -0 -0 -0 -0 -0 -0 -0 -0 -0 -0 -0 -0 -0 -0 -0 -0 -0 -0 -0 -0 -0 -0 -0 -0 -27 -112 -182 -131 -0 -17 -15 -44 -56 -0 -0 -0
-97 -0 -0 -0 -0 -0 -0 -0 -0 -0 -0 -0 -0 -0 -0 -0 -0 -0 -12 -0 -0 -0 -0 -0 -0 -0 -0 -0 -0 -0 -0 -175 -0 -0 -0 -0 -0 -0 -0 -0 -0 -0 -0
-69 -99 -0 -0 -0 -0 -0 -0 -0 -0 -0 -0 -0 -0 -0 -0 -0 -275 -230 -0 -0 -0 -0 -0 -0 -0 -0 -0 -0 -0 -0 -0 -0 -0 -0 -0 -0 -0 -0 -0 -0 -0 -0
-21 -56 -90 -0 -0 -0 -0 -0 -0 -0 -0 -0 -0 -0 -0 -0 -0 -0 -0 -307 -0 -0 -0 -0 -0 -0 -0 -0 -0 -0 -0 -0 -0 -0 -0 -0 -0 -0 -0 -0 -0 -0 -0
-25 -42 -34 -84 -0 -0 -0 -0 -0 -0 -0 -0 -0 -0 -0 -0 -0 -0 -0 -0 -0 -0 -0 -0 -0 -0 -0 -0 -0 -0 -0 -0 -0 -0 -0 -0 -0 -0 -0 -0 -0 -0 -0
Wind_Speed
nan nan nan nan nan nan nan nan nan nan nan nan nan nan nan nan nan nan nan 31 27 nan nan nan nan nan nan nan nan nan nan nan nan nan 24 24 25 22 26 28 32 36 38
nan nan nan nan nan nan nan nan nan nan nan nan nan nan nan nan nan nan nan 29 nan nan nan nan nan nan nan nan nan nan nan nan nan 23 nan 25 26 26 30 31 33 31 29
nan nan nan nan nan nan nan nan nan nan nan nan nan nan nan nan nan nan nan nan nan nan nan nan nan nan nan nan nan nan nan nan nan 20 21 24 nan 29 29 30 29 25 27
nan nan nan nan nan nan nan nan nan nan nan nan nan nan nan nan nan nan nan nan nan nan nan nan nan nan nan nan nan nan nan nan nan 22 25 23 23 25 25 29 27 27 27
nan nan nan nan nan nan nan nan nan nan nan nan nan nan nan nan nan nan nan nan nan nan nan nan nan nan nan nan nan nan nan nan nan 25 26 25 25 32 27 28 28 31 27
nan nan nan nan nan nan nan nan nan nan nan nan nan nan nan nan nan nan nan nan nan nan nan nan nan nan nan nan nan nan nan nan nan nan 22 21 24 25 28 30 28 24 26
nan nan nan nan nan nan nan nan nan nan nan nan nan nan nan nan nan nan nan nan nan nan nan nan nan nan nan nan nan nan nan nan nan nan nan nan nan 26 28 26 27 25 26
nan nan nan nan nan nan nan nan nan nan nan nan nan nan nan nan nan nan nan nan nan nan nan nan nan nan nan nan nan nan nan nan nan 9 nan nan nan 25 28 25 25 21 nan
nan nan nan nan nan nan nan nan nan nan nan nan nan nan nan nan nan nan nan nan nan nan nan nan nan nan nan nan nan nan nan nan nan 6 12 13 15 22 28 20 25 18 24
nan nan nan nan nan nan nan nan nan nan nan nan nan nan nan nan nan nan nan nan nan nan nan nan nan nan nan nan nan 14 14 15 nan 12 7 6 8 nan 29 30 23 nan 22
nan nan nan nan nan nan nan nan nan nan nan nan nan nan nan nan nan nan nan nan nan nan nan nan nan nan nan 13 nan 14 16 16 12 10 8 9 10 14 nan 29 nan nan nan
nan nan nan nan nan nan nan nan nan nan nan nan nan nan nan nan nan nan nan nan nan nan nan nan nan nan nan nan nan nan nan nan 14 nan 6 nan nan nan nan nan nan nan nan
nan nan nan nan nan nan nan nan nan nan nan nan nan nan nan nan nan nan nan nan nan nan nan nan nan nan nan nan nan nan nan 15 nan nan nan nan nan nan nan nan nan nan nan
nan nan nan nan nan nan nan nan nan nan nan nan nan nan nan nan nan nan nan nan nan nan nan nan nan nan nan nan nan nan nan nan 15 12 nan nan nan nan nan nan nan nan nan
nan nan nan nan nan nan nan nan nan nan nan nan nan nan nan nan nan nan nan nan nan nan nan nan nan nan nan nan nan nan nan nan nan nan nan nan nan nan nan nan nan nan nan
nan nan nan nan nan nan nan nan nan nan nan nan nan nan nan nan nan nan nan nan nan nan nan nan nan nan nan nan nan nan nan nan nan nan nan nan nan nan nan nan nan nan nan
nan nan nan nan nan nan nan nan nan nan nan nan nan nan nan nan nan nan nan nan nan nan nan nan nan nan nan nan nan nan nan nan nan nan nan nan nan nan nan nan nan nan nan
nan nan nan nan nan nan nan nan nan nan nan nan nan nan nan nan nan nan nan nan nan nan nan nan nan nan nan nan nan nan nan nan nan nan nan nan nan nan nan nan nan nan nan
nan nan nan nan nan nan nan nan nan nan nan nan nan nan nan nan nan nan nan nan nan nan nan nan nan nan nan nan nan nan nan nan nan nan nan nan nan nan nan nan nan nan nan
nan nan nan nan nan nan nan nan nan nan nan nan nan nan nan nan nan nan nan nan nan nan nan nan nan nan nan nan nan nan nan nan nan nan nan nan nan nan nan nan nan nan nan
nan nan nan nan nan nan nan nan nan nan nan nan nan nan nan nan nan nan nan nan nan nan nan nan nan nan nan nan nan nan nan nan nan nan nan nan nan nan nan nan nan nan nan
nan nan nan nan nan nan nan nan nan nan nan nan nan nan nan nan nan nan nan nan nan nan nan nan nan nan nan nan nan nan nan nan nan nan nan nan nan nan nan nan nan nan nan
nan nan nan nan nan nan nan nan nan nan nan nan nan nan nan nan nan nan nan nan nan nan nan nan nan nan nan nan nan nan nan nan nan nan nan nan nan nan nan nan nan nan nan
nan nan nan nan nan nan nan nan nan nan nan nan nan nan nan nan nan nan nan nan nan nan nan nan nan nan nan nan nan nan nan nan nan nan nan nan nan nan nan nan nan nan nan
nan nan nan nan nan nan nan nan nan nan nan nan nan nan nan nan nan nan nan nan nan nan nan nan nan nan nan nan nan nan nan nan nan nan nan nan nan nan nan nan nan nan nan
nan nan nan nan nan nan nan nan nan nan nan nan nan nan nan nan nan nan nan nan nan nan nan nan nan nan nan nan nan nan nan nan nan nan nan nan nan nan nan nan nan nan nan
Wind_Direction
nan nan nan nan nan nan nan nan nan nan nan nan nan nan nan nan nan nan nan 325 322 nan nan nan nan nan nan nan nan nan nan nan nan nan 203 204 203 194 189 191 193 193 196
nan nan nan nan nan nan nan nan nan nan nan nan nan nan nan nan nan nan nan 324 nan nan nan nan nan nan nan nan nan nan nan nan nan 192 nan 203 188 193 187 190 190 187 193
nan nan nan nan nan nan nan nan nan nan nan nan nan nan nan nan nan nan nan nan nan nan nan nan nan nan nan nan nan nan nan nan nan 183 186 179 nan 181 182 187 186 185 187
nan nan nan nan nan nan nan nan nan nan nan nan nan nan nan nan nan nan nan nan nan nan nan nan nan nan nan nan nan nan nan nan nan 153 152 161 171 175 178 182 177 179 183
nan nan nan nan nan nan nan nan nan nan nan nan nan nan nan nan nan nan nan nan nan nan nan nan nan nan nan nan nan nan nan nan nan 147 154 158 160 171 173 174 172 178 181
nan nan nan nan nan nan nan nan nan nan nan nan nan nan nan nan nan nan nan nan nan nan nan nan nan nan nan nan nan nan nan nan nan nan 146 158 166 160 172 174 173 177 176
nan nan nan nan nan nan nan nan nan nan nan nan nan nan nan nan nan nan nan nan nan nan nan nan nan nan nan nan nan nan nan nan nan nan nan nan nan 172 172 173 176 180 178
nan nan nan nan nan nan nan nan nan nan nan nan nan nan nan nan nan nan nan nan nan nan nan nan nan nan nan nan nan nan nan nan nan 165 nan nan nan 173 177 175 180 176 nan
nan nan nan nan nan nan nan nan nan nan nan nan nan nan nan nan nan nan nan nan nan nan nan nan nan nan nan nan nan nan nan nan nan 140 130 161 191 181 187 174 178 170 162
nan nan nan nan nan nan nan nan nan nan nan nan nan nan nan nan nan nan nan nan nan nan nan nan nan nan nan nan nan 130 137 151 nan 149 136 181 161 nan 180 183 173 nan 168
nan nan nan nan nan nan nan nan nan nan nan nan nan nan nan nan nan nan nan nan nan nan nan nan nan nan nan 161 nan 139 132 143 146 143 152 199 178 170 nan 183 nan nan nan
nan nan nan nan nan nan nan nan nan nan nan nan nan nan nan nan nan nan nan nan nan nan nan nan nan nan nan nan nan nan nan nan 149 nan 116 nan nan nan nan nan nan nan nan
nan nan nan nan nan nan nan nan nan nan nan nan nan nan nan nan nan nan nan nan nan nan nan nan nan nan nan nan nan nan nan 153 nan nan nan nan nan nan nan nan nan nan nan
nan nan nan nan nan nan nan nan nan nan nan nan nan nan nan nan nan nan nan nan nan nan nan nan nan nan nan nan nan nan nan nan 160 154 nan nan nan nan nan nan nan nan nan
nan nan nan nan nan nan nan nan nan nan nan nan nan nan nan nan nan nan nan nan nan nan nan nan nan nan nan nan nan nan nan nan nan nan nan nan nan nan nan nan nan nan nan
nan nan nan nan nan nan nan nan nan nan nan nan nan nan nan nan nan nan nan nan nan nan nan nan nan nan nan nan nan nan nan nan nan nan nan nan nan nan nan nan nan nan nan
nan nan nan nan nan nan nan nan nan nan nan nan nan nan nan nan nan nan nan nan nan nan nan nan nan nan nan nan nan nan nan nan nan nan nan nan nan nan nan nan nan nan nan
nan nan nan nan nan nan nan nan nan nan nan nan nan nan nan nan nan nan nan nan nan nan nan nan nan nan nan nan nan nan nan nan nan nan nan nan nan nan nan nan nan nan nan
nan nan nan nan nan nan nan nan nan nan nan nan nan nan nan nan nan nan nan nan nan nan nan nan nan nan nan nan nan nan nan nan nan nan nan nan nan nan nan nan nan nan nan
nan nan nan nan nan nan nan nan nan nan nan nan nan nan nan nan nan nan nan nan nan nan nan nan nan nan nan nan nan nan nan nan nan nan nan nan nan nan nan nan nan nan nan
nan nan nan nan nan nan nan nan nan nan nan nan nan nan nan nan nan nan nan nan nan nan nan nan nan nan nan nan nan nan nan nan nan nan nan nan nan nan nan nan nan nan nan
nan nan nan nan nan nan nan nan nan nan nan nan nan nan nan nan nan nan nan nan nan nan nan nan nan nan nan nan nan nan nan nan nan nan nan nan nan nan nan nan nan nan nan
nan nan nan nan nan nan nan nan nan nan nan nan nan nan nan nan nan nan nan nan nan nan nan nan nan nan nan nan nan nan nan nan nan nan nan nan nan nan nan nan nan nan nan
nan nan nan nan nan nan nan nan nan nan nan nan nan nan nan nan nan nan nan nan nan nan nan nan nan nan nan nan nan nan nan nan nan nan nan nan nan nan nan nan nan nan nan
nan nan nan nan nan nan nan nan nan nan nan nan nan nan nan nan nan nan nan nan nan nan nan nan nan nan nan nan nan nan nan nan nan nan nan nan nan nan nan nan nan nan nan
nan nan nan nan nan nan nan nan nan nan nan nan nan nan nan nan nan nan nan nan nan nan nan nan nan nan nan nan nan nan nan nan nan nan nan nan nan nan nan nan nan nan nan